269  
ASUS45 KGGW 230415  
RWRGGW  
HOURLY REGIONAL WEATHER ROUNDUP FOR NORTHEAST MONTANA  
NATIONAL WEATHER SERVICE GLASGOW MONTANA  
900 PM MST THU FEB 22 2018  
 
NOTE: "FAIR" INDICATES FEW OR NO CLOUDS BELOW 12,000 FEET WITH NO  
SIGNIFICANT WEATHER AND/OR S TO VISISBILITY.  
 
NORTHEAST MONTANA  
 
 
CITY SKY/WX TMP DP RH WIND PRES REMARKS
 
GLASGOW CLEAR -12 -16 82 CALM 30.25S  
PLENTYWOOD N/A 2 -2 83 NW3 N/A  
WOLF POINT CLEAR -9 -16 71 SW10 30.30R WCI -27  
JORDAN N/A -14 -19 79 NW6 30.23R  
WINNETT N/A -6 -9 86 SW2 N/A  
SIDNEY CLEAR -6 -12 75 S3 30.27R  
GLENDIVE CLEAR -1 -8 72 NW9 30.23R  
 
FORT PECK REPORTS  
 
 
CITY SKY/WX TMP DP RH WIND PRES REMARKS
 
FORT PECK N/A -7 -10 87 W5 N/A  
THE PINES N/A -3 -9 75 W3 N/A  
 
SOUTHEAST MONTANA  
 
 
CITY SKY/WX TMP DP RH WIND PRES REMARKS
 
BILLINGS MOCLDY 5 -2 72 N8 30.15R  
MILES CITY MOCLDY -8 -12 83 NW12 30.22S WCI -27  
BAKER MOCLDY -2 -6 83 W8 30.17R  
LIVINGSTON CLEAR 8 -1 66 E13 30.06R WCI -8  
 
CENTRAL MONTANA  
 
 
CITY SKY/WX TMP DP RH WIND PRES REMARKS
 
HAVRE CLOUDY -2 -7 79 SW10 30.25S WCI -19  
LEWISTOWN MOCLDY -1 -6 79 SE6 30.13S  
GREAT FALLS PTCLDY 2 -3 80 SW6 30.16F  
CUT BANK PTCLDY 1 -2 87 CALM 30.13F  
HELENA PTCLDY 9 -2 61 W8 30.12S  
BUTTE LGT SNOW 13 8 81 N7 29.95R  
BOZEMAN PTCLDY 7 2 80 SW3 30.05R  
 
WESTERN MONTANA  
 
 
CITY SKY/WX TMP DP RH WIND PRES REMARKS
 
MISSOULA CLOUDY 18 7 62 NW7 30.10R  
KALISPELL NOT AVBL  
 
NORTH DAKOTA  
 
 
CITY SKY/WX TMP DP RH WIND PRES REMARKS
 
WILLISTON CLEAR -3 -8 79 SW3 30.26R  
DICKINSON PTCLDY 6 -1 73 NW8 30.14S  
MINOT CLOUDY 5 -1 76 SW5 30.21R  
BISMARCK CLOUDY 17 10 74 NW3 30.21F  
 
SOUTHERN SASKATCHEWAN  
 
 
CITY SKY/WX TMP DP RH WIND PRES REMARKS
 
REGINA FLURRIES 10 7 85 W6 30.21R  
ESTEVAN PTCLDY -8 -13 77 SW6 30.22S  
SWIFT CURRENT FLURRIES 7 3 85 W12 30.16R WCI -9  
 
 
 
CLICK HERE TO GO TO PREVIOUS BULLETINS.

The Nexlab MT Page Main Text Page